Weather History for Litchfield, MN

Change the Weather History Date:

Wednesday, November 14, 2012

  Actual Average Record
Temperature  
Mean Temperature 36 °F -  
Max Temperature 48 °F 40 °F 74 °F (1990)
Min Temperature 26 °F 25 °F -2 °F (1959)
Degree Days  
Heating Degree Days 29    
Moisture  
Dew Point 30 °F    
Average Humidity 88    
Maximum Humidity 100    
Minimum Humidity 71    
Precipitation  
Precipitation 0.00 in - - ()
Sea Level Pressure  
Sea Level Pressure 30.23 in    
Wind  
Wind Speed 0 mph (South)    
Max Wind Speed 5 mph    
Max Gust Speed -    
Visibility 10 miles    
Events      
Averages and records for this station are not official NWS values.
T = Trace of Precipitation, MM = Missing Value Source: NWS Daily Summary

Daily Weather History Graph

Daily Weather History Graph

Search for Another Location

Airport:

Trip Planner

Search our weather history database for the weather conditions in past years. The results will help you decide how hot, cold, wet, or windy it might be!

Date:

Astronomy

Nov. 14, 2012 Rise Set
Actual Time 7:15 AM CST 4:49 PM CST
Civil Twilight 6:43 AM CST 5:21 PM CST
Nautical Twilight 6:07 AM CST 5:56 PM CST
Astronomical Twilight 5:33 AM CST 6:31 PM CST
Moon 8:08 AM CST (11/14) 5:35 PM CST (11/14)
Length of Visible Light 10h 37m
Length of Day
9h 34m
New Moon, 1% of the Moon is Illuminated
Nov 14
New Moon
Nov 20
First Quarter
Nov 28
Full
Dec 6
Last Quarter
Dec 13
New

Hourly Weather History & Observations

Time (CST) Temp. Windchill Dew Point Humidity Pressure Visibility Wind Dir Wind Speed Gust Speed Precip Events Conditions
12:13 AM 35.6 °F - 30.2 °F 81% 30.23 in 10.0 mi Calm Calm - N/A   Overcast
12:33 AM 35.6 °F - 32.0 °F 87% 30.23 in 10.0 mi Calm Calm - N/A   Overcast
12:53 AM 35.6 °F - 30.2 °F 81% 30.23 in 10.0 mi Calm Calm - N/A   Overcast
1:13 AM 35.6 °F - 30.2 °F 81% 30.23 in 10.0 mi Calm Calm - N/A   Overcast
1:33 AM 33.8 °F - 30.2 °F 87% 30.23 in 10.0 mi Calm Calm - N/A   Overcast
1:53 AM 33.8 °F - 30.2 °F 87% 30.23 in 10.0 mi Calm Calm - N/A   Overcast
2:13 AM 33.8 °F - 30.2 °F 87% 30.24 in 10.0 mi Calm Calm - N/A   Overcast
2:33 AM 33.8 °F - 30.2 °F 87% 30.24 in 10.0 mi Calm Calm - N/A   Overcast
2:53 AM 32.0 °F - 28.4 °F 87% 30.23 in 10.0 mi Calm Calm - N/A   Unknown
3:13 AM 30.2 °F - 28.4 °F 93% 30.23 in 10.0 mi Calm Calm - N/A   Overcast
3:33 AM 30.2 °F - 26.6 °F 86% 30.23 in 10.0 mi Calm Calm - N/A   Overcast
3:53 AM 28.4 °F - 26.6 °F 93% 30.23 in 10.0 mi Calm Calm - N/A   Mostly Cloudy
4:13 AM 28.4 °F - 26.6 °F 93% 30.23 in 10.0 mi Calm Calm - N/A   Scattered Clouds
4:33 AM 28.4 °F - 26.6 °F 93% 30.23 in 10.0 mi Calm Calm - N/A   Scattered Clouds
4:53 AM 26.6 °F - 24.8 °F 93% 30.24 in 10.0 mi Calm Calm - N/A   Scattered Clouds
5:13 AM 26.6 °F - 24.8 °F 93% 30.23 in 10.0 mi Calm Calm - N/A   Scattered Clouds
5:33 AM 26.6 °F - 24.8 °F 93% 30.24 in 10.0 mi Calm Calm - N/A   Clear
5:53 AM 26.6 °F - 24.8 °F 93% 30.24 in 10.0 mi Calm Calm - N/A   Clear
6:13 AM 26.6 °F - 24.8 °F 93% 30.23 in 10.0 mi Calm Calm - N/A   Clear
6:33 AM 26.6 °F - 24.8 °F 93% 30.23 in 10.0 mi Calm Calm - N/A   Clear
6:53 AM 26.6 °F - 24.8 °F 93% 30.23 in 10.0 mi Calm Calm - N/A   Clear
7:14 AM 26.6 °F - 26.6 °F 100% 30.23 in 10.0 mi Calm Calm - N/A   Clear
7:33 AM 28.4 °F - 26.6 °F 93% 30.23 in 7.0 mi Calm Calm - N/A   Clear
7:53 AM 30.2 °F - 28.4 °F 93% 30.23 in 7.0 mi Calm Calm - N/A   Clear
8:14 AM 33.8 °F - 32.0 °F 93% 30.23 in 10.0 mi Calm Calm - N/A   Clear
8:33 AM 37.4 °F - 33.8 °F 87% 30.23 in 10.0 mi Calm Calm - N/A   Clear
8:53 AM 39.2 °F - 33.8 °F 81% 30.23 in 10.0 mi Calm Calm - N/A   Clear
9:13 AM 37.4 °F - 33.8 °F 87% 30.23 in 10.0 mi Calm Calm - N/A   Clear
9:33 AM 37.4 °F - 35.6 °F 93% 30.23 in 10.0 mi Calm Calm - N/A   Clear
9:53 AM 42.8 °F 41.1 °F 37.4 °F 81% 30.23 in 10.0 mi SSE 3.5 mph - N/A   Clear
10:13 AM 42.8 °F 40.1 °F 37.4 °F 81% 30.23 in 10.0 mi South 4.6 mph - N/A   Clear
10:18 AM 42.8 °F 41.1 °F 37.4 °F 81% 30.23 in 10.0 mi South 3.5 mph - N/A   Clear
10:53 AM 46.4 °F 45.2 °F 39.2 °F 76% 30.23 in 10.0 mi South 3.5 mph - N/A   Unknown
11:04 AM 48.2 °F - 39.2 °F 71% 30.22 in 10.0 mi South 3.5 mph - N/A   Clear